Location: College Park
(38.9810°N, 76.9370°W)
Time: 20:28:41
(UTC-04:00)

Hubble Space Telescope - Pass Details

Date: 15 March 2018
Orbit: 537 x 541 km, 28.5° (Epoch: 17 June)

Event Time Altitude Azimuth Distance (km) Brightness Sun altitude
Rises 19:48:46 0° 240° (WSW) 2,678 5.4 -7.4°
Reaches altitude 10° 19:51:32 10° 222° (SW) 1,786 4.0 -8.0°
Maximum altitude 19:54:27 19° 177° (S) 1,325 2.7 -8.5°
Drops below altitude 10° 19:57:22 10° 132° (SE) 1,785 3.0 -9.1°
Enters shadow 19:57:54 - 127° (SE) 1,936 3.1 -9.2°
